Location: Elende
(51.4317°N, 10.6316°E)
Time: 19:13:12
(UTC+00:00)

SWAS - Pass Details

Date: 18 September 2020
Orbit: 581 x 590 km, 69.9° (Epoch: 22 October)

Event Time Altitude Azimuth Distance (km) Brightness Sun altitude
Rises 19:31:23 0° 327° (NNW) 2,831 9.0 -19.7°
Reaches altitude 10° 19:33:38 10° 326° (NW) 1,925 8.0 -20.0°
Maximum altitude 19:37:57 79° 241° (WSW) 604 4.4 -20.6°
Enters shadow 19:38:57 51° 165° (SSE) 739 4.6 -20.8°
